Location: Unspecified
(0.0000°N, 0.0000°E)
Time: 11:36:17
(UTC+02:00)

Palapa 6 Rocket - Visible Passes

Search period start: 22 June 2018 00:00
Search period end: 02 July 2018 00:00
Orbit: 485 x 1219 km, 22.7° (Epoch: 21 June)

Date Brightness Start Highest point End Pass type
(mag) Time Alt. Az. Time Alt. Az. Time Alt. Az.
22 Jun 4.6 05:46:16 52° S 05:46:16 52° S 05:52:27 10° SE visible
22 Jun 5.4 07:28:45 10° WSW 07:34:42 23° SSW 07:40:07 10° SSE visible
23 Jun 5.3 05:33:22 35° SSE 05:33:22 35° SSE 05:37:49 10° SE visible
23 Jun 5.5 07:15:18 13° WSW 07:20:07 22° SSW 07:25:31 10° SSE visible
24 Jun 5.9 05:20:19 23° SE 05:20:19 23° SE 05:23:07 10° SE visible
24 Jun 5.6 07:02:14 16° SW 07:05:33 21° SSW 07:10:54 10° SSE visible
25 Jun 6.4 05:07:09 15° SE 05:07:09 15° SE 05:08:23 10° SE visible
25 Jun 5.7 06:49:04 18° SW 06:50:59 20° SSW 06:56:14 10° SSE visible
26 Jun 5.8 06:35:47 18° SSW 06:36:25 19° SSW 06:41:33 10° SSE visible
27 Jun 5.9 06:22:24 17° S 06:22:24 17° S 06:26:49 10° SSE visible
28 Jun 6.1 06:08:57 16° S 06:08:57 16° S 06:12:03 10° SSE visible
28 Jun 6.0 22:32:39 10° N 22:32:54 11° N 22:32:54 11° N visible
29 Jun 6.3 05:55:25 13° S 05:55:25 13° S 05:57:15 10° SSE visible
29 Jun 5.7 22:18:09 10° N 22:19:06 12° N 22:19:06 12° N visible
30 Jun 6.5 05:41:51 11° SSE 05:41:51 11° SSE 05:42:25 10° SSE visible
30 Jun 6.3 07:26:34 10° SSW 07:29:26 12° S 07:32:16 10° SSE visible
30 Jun 5.5 22:03:39 10° N 22:05:20 13° NNE 22:05:20 13° NNE visible
01 Jul 6.3 07:11:49 10° SSW 07:14:59 13° S 07:18:06 10° SSE visible
01 Jul 5.2 21:49:09 10° N 21:51:29 14° NNE 21:51:35 14° NNE visible
